• In Czech Republic
  • List of Countries
  • For 7 days
  • Water Temperature
  • Satellite Maps
  • Weather Map
  • Weather Widgets
  • user-avatar
    Login

    Hourly Weather Waterbury

    Today, 24 April, Tuesday

    Time Temperature Precipitation Wind Pressure Humidity
    00:00 +6°C° 0 mm 1 mps 759 mmHg 79%
    01:00 +6°C° 0 mm 1 mps 758 mmHg 80%
    02:00 +6°C° 0 mm 1 mps 758 mmHg 80%
    03:00 +5°C° 0 mm 1 mps 758 mmHg 80%
    04:00 +5°C° 0 mm 1 mps 758 mmHg 79%
    05:00 +7°C° 0 mm 1 mps 758 mmHg 73%
    06:00 +8°C° 0 mm 1 mps 759 mmHg 67%
    07:00 +10°C° 0 mm 1 mps 759 mmHg 58%
    08:00 +12°C° 0 mm 1 mps 758 mmHg 51%
    09:00 +14°C° 0 mm 2 mps 758 mmHg 43%
    10:00 +16°C° 0 mm 3 mps 758 mmHg 36%
    11:00 +17°C° 0 mm 3 mps 757 mmHg 34%
    12:00 +17°C° 0 mm 3 mps 757 mmHg 32%
    13:00 +18°C° 0 mm 4 mps 756 mmHg 31%
    14:00 +17°C° 0 mm 4 mps 756 mmHg 33%
    15:00 +17°C° 0 mm 4 mps 756 mmHg 35%
    16:00 +15°C° 0 mm 4 mps 755 mmHg 37%
    17:00 +13°C° 0 mm 3 mps 755 mmHg 44%
    18:00 +12°C° 0 mm 3 mps 755 mmHg 52%
    19:00 +10°C° 0 mm 2 mps 754 mmHg 60%
    20:00 +10°C° 0 mm 2 mps 754 mmHg 63%
    21:00 +10°C° 0 mm 2 mps 754 mmHg 67%
    22:00 +9°C° 0 mm 2 mps 754 mmHg 71%
    23:00 +9°C° 0.2 mm 2 mps 753 mmHg 76%

    Tomorrow, 25 April, Wednesday

    Time Temperature Precipitation Wind Pressure Humidity
    00:00 +9°C° 0.2 mm 2 mps 753 mmHg 82%
    01:00 +9°C° 0.2 mm 2 mps 752 mmHg 87%
    02:00 +9°C° 1.1 mm 3 mps 752 mmHg 90%
    03:00 +10°C° 1.1 mm 3 mps 751 mmHg 93%
    04:00 +10°C° 1.1 mm 3 mps 750 mmHg 96%
    05:00 +10°C° 0.8 mm 3 mps 750 mmHg 96%
    06:00 +11°C° 0.8 mm 3 mps 749 mmHg 96%
    07:00 +11°C° 0.8 mm 4 mps 749 mmHg 96%
    08:00 +11°C° 1.1 mm 4 mps 748 mmHg 95%
    09:00 +12°C° 1.1 mm 5 mps 747 mmHg 95%
    10:00 +12°C° 1.1 mm 5 mps 746 mmHg 94%
    11:00 +12°C° 2.2 mm 5 mps 746 mmHg 95%
    12:00 +12°C° 2.2 mm 5 mps 745 mmHg 96%
    13:00 +12°C° 2.2 mm 4 mps 744 mmHg 96%
    14:00 +12°C° 1.2 mm 4 mps 743 mmHg 97%
    15:00 +12°C° 1.2 mm 3 mps 742 mmHg 97%
    16:00 +12°C° 1.2 mm 3 mps 741 mmHg 97%
    17:00 +13°C° 0.1 mm 2 mps 741 mmHg 98%
    18:00 +13°C° 0.1 mm 2 mps 741 mmHg 98%
    19:00 +13°C° 0.1 mm 1 mps 741 mmHg 99%
    20:00 +13°C° 0.1 mm 1 mps 741 mmHg 99%
    21:00 +13°C° 0.1 mm 1 mps 740 mmHg 99%
    22:00 +13°C° 0.1 mm 1 mps 740 mmHg 99%
    23:00 +13°C° 0.1 mm 1 mps 740 mmHg 99%

    Day after tomorrow, 26 April, Thursday

    Time Temperature Precipitation Wind Pressure Humidity
    00:00 +13°C° 0.1 mm 1 mps 740 mmHg 99%
    01:00 +13°C° 0.1 mm 1 mps 739 mmHg 99%
    02:00 +13°C° 0.1 mm 2 mps 739 mmHg 98%
    03:00 +13°C° 0.1 mm 2 mps 740 mmHg 97%
    04:00 +11°C° 0.1 mm 3 mps 740 mmHg 96%
    05:00 +11°C° 0 mm 3 mps 740 mmHg 93%
    06:00 +11°C° 0 mm 3 mps 741 mmHg 89%
    07:00 +11°C° 0 mm 4 mps 741 mmHg 86%
    08:00 +12°C° 0 mm 4 mps 741 mmHg 77%
    09:00 +13°C° 0 mm 4 mps 742 mmHg 68%
    10:00 +14°C° 0 mm 4 mps 742 mmHg 59%
    11:00 +15°C° 0 mm 4 mps 742 mmHg 55%
    12:00 +18°C° 0 mm 4 mps 742 mmHg 51%
    13:00 +19°C° 0 mm 3 mps 743 mmHg 47%
    14:00 +19°C° 0 mm 3 mps 743 mmHg 47%
    15:00 +19°C° 0 mm 3 mps 743 mmHg 47%
    16:00 +19°C° 0 mm 3 mps 743 mmHg 47%
    17:00 +17°C° 0 mm 3 mps 744 mmHg 55%
    18:00 +15°C° 0 mm 2 mps 744 mmHg 64%
    19:00 +12°C° 0 mm 2 mps 745 mmHg 72%
    20:00 +12°C° 0 mm 1 mps 745 mmHg 75%
    21:00 +11°C° 0 mm 1 mps 746 mmHg 78%
    22:00 +10°C° 0 mm 1 mps 746 mmHg 81%
    23:00 +9°C° 0 mm 1 mps 746 mmHg 81%

    27 April, Friday

    Time Temperature Precipitation Wind Pressure Humidity
    00:00 +9°C° 0 mm 1 mps 746 mmHg 82%
    01:00 +8°C° 0 mm 1 mps 746 mmHg 82%
    02:00 +8°C° 0 mm 1 mps 745 mmHg 80%
    03:00 +8°C° 0 mm 1 mps 745 mmHg 77%
    04:00 +8°C° 0 mm 1 mps 745 mmHg 75%
    05:00 +9°C° 0 mm 1 mps 745 mmHg 72%
    06:00 +10°C° 0 mm 1 mps 746 mmHg 70%
    07:00 +11°C° 0 mm 1 mps 746 mmHg 68%
    08:00 +12°C° 0.3 mm 1 mps 746 mmHg 70%
    09:00 +13°C° 0.3 mm 2 mps 746 mmHg 72%
    10:00 +14°C° 0.3 mm 2 mps 745 mmHg 74%
    11:00 +13°C° 0.3 mm 2 mps 745 mmHg 77%
    12:00 +13°C° 0.3 mm 2 mps 745 mmHg 80%
    13:00 +13°C° 0.3 mm 2 mps 744 mmHg 83%
    14:00 +13°C° 0.6 mm 2 mps 744 mmHg 86%
    15:00 +11°C° 0.6 mm 3 mps 743 mmHg 90%
    16:00 +11°C° 0.6 mm 3 mps 742 mmHg 94%
    17:00 +13°C° 0.5 mm 2 mps 742 mmHg 95%
    18:00 +13°C° 0.5 mm 2 mps 742 mmHg 97%
    19:00 +13°C° 0.5 mm 2 mps 742 mmHg 98%
    20:00 +13°C° 0.2 mm 1 mps 742 mmHg 98%
    21:00 +13°C° 0.2 mm 1 mps 742 mmHg 98%
    22:00 +13°C° 0.2 mm 1 mps 742 mmHg 99%
    23:00 +13°C° 0 mm 1 mps 742 mmHg 99%

    28 April, Saturday

    Time Temperature Precipitation Wind Pressure Humidity
    00:00 +13°C° 0 mm 1 mps 742 mmHg 99%
    01:00 +13°C° 0 mm 1 mps 741 mmHg 99%
    02:00 +13°C° 0 mm 1 mps 741 mmHg 99%
    03:00 +13°C° 0 mm 1 mps 742 mmHg 99%
    04:00 +13°C° 0 mm 1 mps 742 mmHg 99%
    05:00 +13°C° 0 mm 1 mps 742 mmHg 97%
    06:00 +14°C° 0 mm 1 mps 742 mmHg 95%
    07:00 +14°C° 0 mm 1 mps 743 mmHg 94%
    08:00 +15°C° 0 mm 2 mps 743 mmHg 84%
    09:00 +17°C° 0 mm 2 mps 743 mmHg 74%
    10:00 +18°C° 0 mm 2 mps 743 mmHg 64%
    11:00 +19°C° 0 mm 2 mps 743 mmHg 58%
    12:00 +20°C° 0 mm 2 mps 743 mmHg 53%
    13:00 +21°C° 0 mm 2 mps 742 mmHg 47%
    14:00 +21°C° 0 mm 2 mps 742 mmHg 50%
    15:00 +20°C° 0 mm 2 mps 742 mmHg 52%
    16:00 +20°C° 0 mm 2 mps 742 mmHg 54%
    17:00 +18°C° 0 mm 2 mps 742 mmHg 60%
    18:00 +16°C° 0 mm 2 mps 742 mmHg 66%
    19:00 +14°C° 0 mm 2 mps 742 mmHg 72%
    20:00 +13°C° 0 mm 2 mps 743 mmHg 73%
    21:00 +13°C° 0 mm 1 mps 743 mmHg 74%
    22:00 +12°C° 0 mm 1 mps 743 mmHg 74%
    23:00 +11°C° 0 mm 1 mps 743 mmHg 74%

    29 April, Sunday

    Time Temperature Precipitation Wind Pressure Humidity
    00:00 +10°C° 0 mm 2 mps 743 mmHg 74%
    01:00 +10°C° 0 mm 2 mps 743 mmHg 74%
    02:00 +9°C° 0 mm 2 mps 744 mmHg 75%
    03:00 +8°C° 0 mm 3 mps 744 mmHg 77%
    04:00 +8°C° 0 mm 3 mps 744 mmHg 78%
    05:00 +7°C° 0 mm 4 mps 745 mmHg 73%
    06:00 +6°C° 0 mm 4 mps 745 mmHg 67%
    07:00 +6°C° 0 mm 5 mps 746 mmHg 62%
    08:00 +8°C° 0 mm 5 mps 746 mmHg 56%
    09:00 +9°C° 0 mm 6 mps 746 mmHg 50%
    10:00 +10°C° 0 mm 6 mps 747 mmHg 44%
    11:00 +11°C° 0 mm 6 mps 747 mmHg 39%
    12:00 +11°C° 0 mm 7 mps 747 mmHg 35%
    13:00 +11°C° 0 mm 7 mps 747 mmHg 31%
    14:00 +11°C° 0 mm 7 mps 747 mmHg 31%
    15:00 +11°C° 0 mm 7 mps 747 mmHg 31%
    16:00 +11°C° 0 mm 6 mps 747 mmHg 31%
    17:00 +9°C° 0 mm 6 mps 748 mmHg 36%
    18:00 +7°C° 0 mm 5 mps 749 mmHg 42%
    19:00 +6°C° 0 mm 4 mps 749 mmHg 47%
    20:00 +5°C° 0 mm 4 mps 750 mmHg 50%
    21:00 +4°C° 0 mm 3 mps 751 mmHg 52%
    22:00 +3°C° 0 mm 3 mps 752 mmHg 55%
    23:00 +3°C° 0 mm 3 mps 752 mmHg 56%
    Show more